Starlink 30839

operational
NORAD ID: 58209 Int'l Des: 2023-170 Owner: SPXS Country: US Constellation: starlink
LEOCIRCULAR

Starlink 30839について

説明を読み込み中...

リアルタイム位置

3D地球を読み込み中...

次回通過

高度履歴

Altitude vs Time

uPlot chart will show altitude changes over time

軌道要素

1 58209U 23170D 25258.15865771 -.00000207 00000-0 -28391-6 0 9999
2 58209 43.0027 69.8263 0001099 264.8106 95.2611 15.02535787103878
Epoch: Sep 15, 2025 • Age: 10 hours

現在のステータス

高度 558.5 km
速度 7.58 km/s
衛星直下点 4.16°N, 35.98°E
打ち上げ日 Nov 4, 2023
運用期間 1.8 years
タイプ internet

技術仕様

分類 Payload
質量 730.00 kg
乾燥質量 700.00 kg
総質量 730.00 kg
長さ 0.30 m
直径 4.10 m
スパン 29.00 m
形状 Box + pan
製造者 SPXS
バスタイプ Starlink V2M
フェーズステータス In Orbit
所有者/国 SPXS/US

大規模コンステレーション

Loading constellations...